FW4287 Weather Reports


Display with metric or nautical units.
time (UTC)temp
F
wind
direction
speed
MPH
gust
MPH
rain 1hr
in
rain 24hr
in
rain mn
in
humidity
%
barometer
mb
20260507150048 53 37 3.0 7.0 0.00 0.00 0.00 75 1019.9
20260507144534 51 27 6.0 9.0 0.00 0.00 0.00 78 1019.8
20260507141606 53 327 2.0 9.0 0.00 0.00 0.00 71 1019.7
20260507140031 53 225 7.0 16.0 0.00 0.00 0.00 72 1019.5
20260507134608 52 218 8.0 17.0 0.00 0.00 0.00 73 1019.4
20260507133028 52 186 5.0 14.0 0.00 0.00 0.00 75 1019.4
20260507131531 52 184 7.0 15.0 0.00 0.00 0.00 75 1019.3
20260507130031 52 208 8.0 18.0 0.00 0.00 0.00 75 1019.3
20260507124530 52 205 11.0 21.0 0.00 0.00 0.00 75 1019.3
20260507123029 52 210 11.0 19.0 0.00 0.00 0.00 75 1019.3
20260507121530 53 227 9.0 19.0 0.00 0.00 0.00 75 1019.3
20260507120031 53 228 10.0 18.0 0.00 0.00 0.00 75 1019.2
20260507113031 53 211 13.0 23.0 0.00 0.00 0.00 75 1019.1
20260507111530 53 214 10.0 20.0 0.00 0.00 0.00 75 1019.0
20260507110031 54 198 12.0 21.0 0.00 0.00 0.00 75 1019.0
20260507103107 54 193 10.0 18.0 0.00 0.00 0.00 74 1019.2
20260507101606 54 200 9.0 20.0 0.00 0.00 0.00 73 1019.2
20260507094608 55 185 10.0 20.0 0.00 0.00 0.00 71 1019.2
20260507093032 56 185 10.0 19.0 0.00 0.00 0.00 70 1019.2
20260507091530 56 179 11.0 20.0 0.00 0.00 0.00 70 1019.3
20260507090031 55 185 10.0 21.0 0.00 0.00 0.00 71 1019.4
20260507084652 55 171 8.0 16.0 0.00 0.00 0.00 72 1019.5
20260507081604 55 186 5.0 15.0 0.00 0.00 0.00 73 1019.7
20260507080108 56 195 7.0 14.0 0.00 0.00 0.00 73 1019.8
20260507074531 56 214 8.0 16.0 0.00 0.00 0.00 72 1019.9
20260507073032 57 215 9.0 16.0 0.00 0.00 0.00 72 1019.9
20260507071531 57 214 9.0 17.0 0.00 0.00 0.00 71 1019.9
20260507070030 57 218 9.0 15.0 0.00 0.00 0.00 71 1019.8
20260507064532 58 211 9.0 18.0 0.00 0.00 0.00 71 1020.0
20260507063031 58 212 8.0 15.0 0.00 0.00 0.00 71 1020.0
20260507061608 58 208 6.0 15.0 0.00 0.00 0.00 71 1020.0
20260507060031 58 202 7.0 16.0 0.00 0.00 0.00 71 1020.1
20260507054610 58 204 7.0 13.0 0.00 0.00 0.00 72 1020.2
20260507053107 58 204 7.0 13.0 0.00 0.00 0.00 72 1020.3
20260507051604 58 205 5.0 10.0 0.00 0.00 0.00 72 1020.4
20260507044529 58 205 4.0 8.0 0.00 0.00 0.00 69 1020.3
20260507043030 58 209 6.0 12.0 0.00 0.00 0.00 68 1020.2
20260507041528 58 209 5.0 9.0 0.00 0.00 0.00 67 1020.0
20260507040037 59 206 6.0 11.0 0.00 0.00 0.00 65 1020.0
20260507034604 60 203 7.0 13.0 0.00 0.00 0.00 64 1020.0
20260507033150 60 187 8.0 20.0 0.00 0.00 0.00 64 1019.9
20260507031530 60 198 7.0 14.0 0.00 0.00 0.00 63 1019.8
20260507030031 61 194 8.0 15.0 0.00 0.00 0.00 61 1019.8
20260507023035 63 206 9.0 22.0 0.00 0.00 0.00 57 1019.6
20260507014528 65 213 11.0 18.0 0.00 0.00 0.00 54 1019.4
20260507013030 66 210 11.0 18.0 0.00 0.00 0.00 53 1019.4
20260507011530 65 215 11.0 18.0 0.00 0.00 0.00 53 1019.4
20260507010030 66 212 11.0 18.0 0.00 0.00 0.00 51 1019.3
20260507004530 68 208 12.0 18.0 0.00 0.00 0.00 47 1019.2
20260507003032 69 206 13.0 21.0 0.00 0.00 0.00 46 1019.1
20260507001533 69 204 13.0 19.0 0.00 0.00 0.00 45 1019.0
20260507000104 69 205 14.0 22.0 0.00 0.00 0.00 44 1018.9
20260506234531 70 206 12.0 20.0 0.00 0.00 0.00 44 1018.8
20260506233104 70 212 12.0 19.0 0.00 0.00 0.00 43 1018.8
20260506230031 70 217 13.0 20.0 0.00 0.00 0.00 45 1018.8
20260506224532 71 212 13.0 23.0 0.00 0.00 0.00 45 1018.8
20260506223104 71 220 11.0 20.0 0.00 0.00 0.00 45 1018.8
20260506221534 72 222 11.0 20.0 0.00 0.00 0.00 45 1018.9
20260506220029 71 218 10.0 19.0 0.00 0.00 0.00 46 1018.9
20260506214652 72 224 11.0 21.0 0.00 0.00 0.00 46 1018.9
20260506213029 71 224 8.0 19.0 0.00 0.00 0.00 47 1018.8
20260506211529 70 191 11.0 20.0 0.00 0.00 0.00 49 1018.9
20260506210029 70 215 11.0 21.0 0.00 0.00 0.00 50 1019.0
20260506204607 70 197 11.0 20.0 0.00 0.00 0.00 50 1019.2
20260506201540 70 198 8.0 16.0 0.00 0.00 0.00 51 1019.1
20260506194532 69 209 8.0 13.0 0.00 0.00 0.00 53 1019.1
20260506193029 69 169 9.0 18.0 0.00 0.00 0.00 55 1019.2
20260506184531 68 227 6.0 14.0 0.00 0.00 0.00 57 1019.3
20260506183028 67 199 7.0 13.0 0.00 0.00 0.00 59 1019.2
20260506180109 67 271 6.0 11.0 0.00 0.00 0.00 60 1019.3
20260506173028 65 233 9.0 14.0 0.00 0.00 0.00 61 1019.2
20260506170031 63 211 11.0 19.0 0.00 0.00 0.00 65 1019.3
20260506164604 62 212 11.0 19.0 0.00 0.00 0.00 66 1019.2
20260506163031 62 205 10.0 19.0 0.00 0.00 0.00 68 1019.8
20260506160030 61 196 11.0 17.0 0.00 0.00 0.00 69 1019.5
20260506154531 60 197 10.0 20.0 0.00 0.00 0.00 69 1019.4
20260506153029 60 214 11.0 21.0 0.00 0.00 0.00 70 1019.3
20260506151529 59 213 12.0 21.0 0.00 0.00 0.00 72 1019.1